When you browse on this site, cookies collect data to enhance your experience and personalize the content and advertising you see.
Visit our Privacy Policy to learn more. By continuing to use the site, you agree to this use of cookies and data.
  • In Lithuania
  • List of Countries
  • For 7 days
  • Water Temperature
  • Satellite Maps
  • Weather Map
  • Weather Widgets
  • user-avatar
    Login

    Hourly Weather Brisbane

    Today, 22 July, Monday

    Time Temperature Precipitation Wind Pressure Humidity
    00:00 +14°C° 0 mm 1 mps 763 mmHg 79%
    01:00 +13°C° 0 mm 1 mps 763 mmHg 82%
    02:00 +13°C° 0 mm 1 mps 763 mmHg 82%
    03:00 +13°C° 0 mm 1 mps 763 mmHg 83%
    04:00 +13°C° 0 mm 1 mps 762 mmHg 85%
    05:00 +13°C° 0 mm 1 mps 762 mmHg 85%
    06:00 +12°C° 0 mm 1 mps 763 mmHg 86%
    07:00 +12°C° 0 mm 1 mps 763 mmHg 86%
    08:00 +15°C° 0 mm 1 mps 763 mmHg 76%
    09:00 +18°C° 0 mm 1 mps 763 mmHg 66%
    10:00 +21°C° 0 mm 1 mps 763 mmHg 56%
    11:00 +22°C° 0 mm 1 mps 762 mmHg 52%
    12:00 +23°C° 0 mm 1 mps 762 mmHg 48%
    13:00 +25°C° 0 mm 1 mps 761 mmHg 43%
    14:00 +24°C° 0 mm 2 mps 761 mmHg 47%
    15:00 +23°C° 0 mm 2 mps 761 mmHg 52%
    16:00 +21°C° 0 mm 3 mps 761 mmHg 56%
    17:00 +20°C° 0.1 mm 3 mps 761 mmHg 62%
    18:00 +19°C° 0.1 mm 2 mps 761 mmHg 68%
    19:00 +17°C° 0.1 mm 2 mps 762 mmHg 75%
    20:00 +17°C° 0 mm 2 mps 762 mmHg 76%
    21:00 +16°C° 0 mm 2 mps 762 mmHg 77%
    22:00 +15°C° 0 mm 2 mps 763 mmHg 79%
    23:00 +15°C° 0 mm 2 mps 763 mmHg 80%

    Tomorrow, 23 July, Tuesday

    Time Temperature Precipitation Wind Pressure Humidity
    00:00 +15°C° 0 mm 1 mps 763 mmHg 82%
    01:00 +14°C° 0 mm 1 mps 763 mmHg 84%
    02:00 +14°C° 0 mm 1 mps 763 mmHg 85%
    03:00 +14°C° 0 mm 1 mps 763 mmHg 86%
    04:00 +13°C° 0 mm 1 mps 763 mmHg 87%
    05:00 +13°C° 0 mm 1 mps 763 mmHg 86%
    06:00 +13°C° 0 mm 1 mps 763 mmHg 86%
    07:00 +13°C° 0 mm 1 mps 764 mmHg 86%
    08:00 +16°C° 0 mm 1 mps 764 mmHg 75%
    09:00 +19°C° 0 mm 1 mps 764 mmHg 64%
    10:00 +22°C° 0 mm 1 mps 764 mmHg 54%
    11:00 +23°C° 0 mm 1 mps 764 mmHg 47%
    12:00 +25°C° 0 mm 1 mps 763 mmHg 40%
    13:00 +26°C° 0 mm 2 mps 762 mmHg 33%
    14:00 +26°C° 0 mm 2 mps 762 mmHg 36%
    15:00 +26°C° 0 mm 2 mps 762 mmHg 38%
    16:00 +25°C° 0 mm 2 mps 762 mmHg 40%
    17:00 +23°C° 0 mm 2 mps 762 mmHg 46%
    18:00 +20°C° 0 mm 2 mps 763 mmHg 52%
    19:00 +18°C° 0 mm 2 mps 763 mmHg 58%
    20:00 +18°C° 0 mm 2 mps 764 mmHg 59%
    21:00 +17°C° 0 mm 2 mps 764 mmHg 61%
    22:00 +16°C° 0 mm 1 mps 764 mmHg 62%
    23:00 +16°C° 0 mm 1 mps 764 mmHg 63%

    Day after tomorrow, 24 July, Wednesday

    Time Temperature Precipitation Wind Pressure Humidity
    00:00 +15°C° 0 mm 1 mps 764 mmHg 63%
    01:00 +15°C° 0 mm 1 mps 764 mmHg 64%
    02:00 +14°C° 0 mm 1 mps 764 mmHg 64%
    03:00 +14°C° 0 mm 2 mps 764 mmHg 65%
    04:00 +13°C° 0 mm 2 mps 764 mmHg 65%
    05:00 +13°C° 0 mm 2 mps 764 mmHg 64%
    06:00 +13°C° 0 mm 2 mps 764 mmHg 64%
    07:00 +12°C° 0 mm 2 mps 765 mmHg 63%
    08:00 +15°C° 0 mm 2 mps 765 mmHg 54%
    09:00 +18°C° 0 mm 2 mps 765 mmHg 45%
    10:00 +20°C° 0 mm 2 mps 765 mmHg 37%
    11:00 +21°C° 0 mm 2 mps 764 mmHg 32%
    12:00 +24°C° 0 mm 1 mps 764 mmHg 28%
    13:00 +25°C° 0 mm 1 mps 763 mmHg 24%
    14:00 +25°C° 0 mm 1 mps 763 mmHg 26%
    15:00 +25°C° 0 mm 1 mps 763 mmHg 28%
    16:00 +24°C° 0 mm 1 mps 762 mmHg 30%
    17:00 +22°C° 0 mm 1 mps 763 mmHg 33%
    18:00 +19°C° 0 mm 2 mps 763 mmHg 37%
    19:00 +17°C° 0 mm 2 mps 764 mmHg 41%
    20:00 +17°C° 0 mm 2 mps 764 mmHg 44%
    21:00 +16°C° 0 mm 2 mps 765 mmHg 47%
    22:00 +15°C° 0 mm 2 mps 765 mmHg 51%
    23:00 +15°C° 0 mm 2 mps 765 mmHg 54%

    25 July, Thursday

    Time Temperature Precipitation Wind Pressure Humidity
    00:00 +14°C° 0 mm 2 mps 765 mmHg 57%
    01:00 +13°C° 0 mm 2 mps 765 mmHg 60%
    02:00 +13°C° 0 mm 2 mps 765 mmHg 61%
    03:00 +13°C° 0 mm 2 mps 765 mmHg 63%
    04:00 +12°C° 0 mm 2 mps 765 mmHg 65%
    05:00 +12°C° 0 mm 2 mps 765 mmHg 67%
    06:00 +12°C° 0 mm 2 mps 765 mmHg 69%
    07:00 +12°C° 0 mm 2 mps 766 mmHg 72%
    08:00 +14°C° 0 mm 2 mps 766 mmHg 68%
    09:00 +17°C° 0 mm 2 mps 766 mmHg 64%
    10:00 +19°C° 0 mm 3 mps 766 mmHg 60%
    11:00 +20°C° 0.1 mm 3 mps 765 mmHg 60%
    12:00 +20°C° 0.1 mm 3 mps 765 mmHg 59%
    13:00 +20°C° 0.1 mm 3 mps 764 mmHg 58%
    14:00 +20°C° 0.1 mm 3 mps 764 mmHg 59%
    15:00 +20°C° 0.1 mm 3 mps 764 mmHg 59%
    16:00 +20°C° 0.1 mm 3 mps 764 mmHg 59%
    17:00 +19°C° 0.1 mm 3 mps 765 mmHg 67%
    18:00 +18°C° 0.1 mm 3 mps 765 mmHg 74%
    19:00 +17°C° 0.1 mm 3 mps 765 mmHg 81%
    20:00 +16°C° 0.2 mm 2 mps 766 mmHg 82%
    21:00 +16°C° 0.2 mm 2 mps 766 mmHg 82%
    22:00 +16°C° 0.2 mm 2 mps 766 mmHg 83%
    23:00 +15°C° 0.1 mm 2 mps 766 mmHg 84%

    26 July, Friday

    Time Temperature Precipitation Wind Pressure Humidity
    00:00 +15°C° 0.1 mm 2 mps 765 mmHg 84%
    01:00 +15°C° 0.1 mm 1 mps 765 mmHg 85%
    02:00 +14°C° 0 mm 1 mps 764 mmHg 86%
    03:00 +14°C° 0 mm 1 mps 764 mmHg 86%
    04:00 +14°C° 0 mm 1 mps 764 mmHg 87%
    05:00 +13°C° 0 mm 2 mps 764 mmHg 87%
    06:00 +13°C° 0 mm 2 mps 765 mmHg 87%
    07:00 +13°C° 0 mm 2 mps 765 mmHg 87%
    08:00 +15°C° 0 mm 2 mps 765 mmHg 80%
    09:00 +17°C° 0 mm 2 mps 765 mmHg 73%
    10:00 +19°C° 0 mm 2 mps 765 mmHg 66%
    11:00 +21°C° 0.1 mm 1 mps 764 mmHg 61%
    12:00 +22°C° 0.1 mm 1 mps 764 mmHg 57%
    13:00 +23°C° 0.1 mm 1 mps 763 mmHg 52%
    14:00 +23°C° 0.1 mm 1 mps 763 mmHg 55%
    15:00 +22°C° 0.1 mm 1 mps 763 mmHg 57%
    16:00 +22°C° 0.1 mm 1 mps 763 mmHg 59%
    17:00 +20°C° 0 mm 1 mps 763 mmHg 65%
    18:00 +18°C° 0 mm 2 mps 763 mmHg 70%
    19:00 +17°C° 0 mm 2 mps 763 mmHg 75%
    20:00 +16°C° 0 mm 2 mps 763 mmHg 78%
    21:00 +16°C° 0 mm 2 mps 763 mmHg 80%
    22:00 +15°C° 0 mm 2 mps 764 mmHg 83%
    23:00 +15°C° 0 mm 1 mps 763 mmHg 84%

    27 July, Saturday

    Time Temperature Precipitation Wind Pressure Humidity
    00:00 +15°C° 0 mm 1 mps 763 mmHg 84%
    01:00 +14°C° 0 mm 1 mps 763 mmHg 85%
    02:00 +14°C° 0 mm 1 mps 763 mmHg 86%
    03:00 +14°C° 0 mm 1 mps 763 mmHg 86%
    04:00 +13°C° 0 mm 1 mps 763 mmHg 87%
    05:00 +13°C° 0 mm 1 mps 763 mmHg 87%
    06:00 +13°C° 0 mm 1 mps 763 mmHg 86%
    07:00 +13°C° 0 mm 1 mps 764 mmHg 86%
    08:00 +15°C° 0 mm 2 mps 764 mmHg 75%
    09:00 +17°C° 0 mm 2 mps 764 mmHg 64%
    10:00 +20°C° 0 mm 2 mps 764 mmHg 53%
    11:00 +21°C° 0 mm 2 mps 763 mmHg 47%
    12:00 +23°C° 0 mm 2 mps 762 mmHg 41%
    13:00 +24°C° 0 mm 3 mps 762 mmHg 35%
    14:00 +24°C° 0 mm 2 mps 762 mmHg 36%
    15:00 +24°C° 0 mm 2 mps 761 mmHg 36%
    16:00 +24°C° 0 mm 2 mps 761 mmHg 36%
    17:00 +21°C° 0 mm 2 mps 762 mmHg 42%
    18:00 +20°C° 0 mm 1 mps 762 mmHg 49%
    19:00 +18°C° 0 mm 1 mps 763 mmHg 55%
    20:00 +16°C° 0 mm 1 mps 763 mmHg 59%
    21:00 +15°C° 0 mm 1 mps 763 mmHg 62%
    22:00 +15°C° 0 mm 1 mps 764 mmHg 66%
    23:00 +14°C° 0 mm 1 mps 764 mmHg 67%
    Show more